Location: Austin
(30.3000°N, 97.7500°W)
Time: 01:07:07
(UTC-06:00)

Cosmos 1140 Rocket - Pass Details

Date: 04 November 2025
Orbit: 740 x 762 km, 74.1° (Epoch: 15 November)

Event Time Altitude Azimuth Distance (km) Brightness Sun altitude
Rises 18:48:46 0° 171° (S) 3,205 6.7 -15.1°
Reaches altitude 10° 18:51:21 10° 162° (SSE) 2,282 5.9 -15.6°
Maximum altitude 18:55:54 32° 100° (E) 1,284 4.1 -16.6°
Enters shadow 18:57:11 28° 72° (ENE) 1,392 4.3 -16.9°
